Regional Weather Roundup
Issued by NWS

Home | Current Version | Previous Version | Text Only | Print | Product List | Glossary Off
Versions: 1 2 3 4 5 6 7 8 9 10 11 12 13 14 15 16 17 18 19 20 21 22 23 24 25 26 27 28 29 30 31 32 33 34 35 36 37 38 39 40 41 42 43 44 45 46 47 48 49 50

000
ASUS43 KIND 312259
RWRIN

WEATHER ROUNDUP FOR INDIANA
NATIONAL WEATHER SERVICE INDIANAPOLIS IN
700 PM EDT THU JUL 31 2014

NOTE: "FAIR" INDICATES FEW OR NO CLOUDS BELOW 12,000 FEET WITH NO
SIGNIFICANT WEATHER AND/OR OBSTRUCTIONS TO VISIBILITY.

* - STATION DOES NOT REPORT WEATHER SUCH AS PRECIPITATION OR FOG.

+ - STATION NOT QUALITY CONTROLLED BY THE NATIONAL WEATHER SERVICE.
    USE DATA WITH CAUTION...ESPECIALLY DEWPOINT AND RELATIVE
    HUMIDITY OBSERVATIONS.

INZ001>003-010>013-019-020-010000-
NORTHWEST INDIANA

CITY           SKY/WX    TMP DP  RH WIND       PRES   REMARKS
GARY /AIRPORT/ PTSUNNY   81  59  47 W16       30.03R
KNOX *+        CLOUDY    71  59  64 NE6       30.04S
MONTICELLO +   SUNNY     78  63  59 SW5       30.05S
RENSSELAER +   SUNNY     77  61  57 SW6       30.05F
VALPARAISO     PTSUNNY   79  60  52 SW10      30.04S

$$

LMZ046-743>745-010000-
SOUTHERN LAKE MICHIGAN

STATION/POSITION TIME  TEMP WIND        PRES
                       AIR  DIR/SP/G
                 (UTC) (F)  (DEG/KT/KT) (MB)
MICHIGAN CITY    2200   76  250/  8/  9   N/A

$$

INZ004-005-014>016-021>024-010000-
NORTH CENTRAL INDIANA

CITY           SKY/WX    TMP DP  RH WIND       PRES   REMARKS
ELKHART        MOSUNNY   79  57  47 SW9       30.04S
GOSHEN         CLOUDY    77  59  53 SW8       30.04R
SOUTH BEND     MOSUNNY   75  58  55 SW14      30.05R
WARSAW +       PTSUNNY   75  59  57 W8        30.05R

$$

INZ006>009-017-018-025>027-010000-
NORTHEAST INDIANA

CITY           SKY/WX    TMP DP  RH WIND       PRES   REMARKS
ANGOLA *+      PTSUNNY   79  73  83 SW3       30.04F
FORT WAYNE     MOSUNNY   79  60  52 SW9       30.05F

$$

INZ028-029-035-036-043>045-051>053-010000-
WEST CENTRAL INDIANA

CITY           SKY/WX    TMP DP  RH WIND       PRES   REMARKS
GREENCASTLE +  MOSUNNY   79  61  53 CALM      30.08S
LAFAYETTE      SUNNY     78  61  55 SW5       30.05F
TERRE HAUTE    CLOUDY    82  60  47 W5        30.06S

$$

INZ030>032-037>040-046>048-054>057-064-065-010000-
CENTRAL INDIANA

CITY           SKY/WX    TMP DP  RH WIND       PRES   REMARKS
COLUMBUS       PTSUNNY   81  59  47 CALM      30.07S
INDIANAPOLIS   MOSUNNY   78  57  48 W7        30.07S
-EAGLE CREEK   SUNNY     78  58  49 NW7       30.06F
KOKOMO *+      SUNNY     79  59  50 W8        30.06F
MT COMFORT *+  SUNNY     79  61  53 NW8       30.07F
SHELBYVILLE    SUNNY     80  62  54 W6        30.07S

$$

INZ033-034-041-042-049-050-058-059-010000-
EAST CENTRAL INDIANA

CITY           SKY/WX    TMP DP  RH WIND       PRES   REMARKS
MUNCIE         SUNNY     78  58  49 W7        30.07F

$$

INZ060-061-067>069-081>083-085>088-010000-
SOUTHWEST INDIANA

CITY           SKY/WX    TMP DP  RH WIND       PRES   REMARKS
EVANSVILLE     PTSUNNY   83  57  41 NW5       30.06S

$$

INZ062-063-066-070>080-084-089>092-010000-
SOUTH CENTRAL AND SOUTHEAST INDIANA

CITY           SKY/WX    TMP DP  RH WIND       PRES   REMARKS
BLOOMINGTON    SUNNY     79  60  52 NW3       30.07F
SEYMOUR +      PTSUNNY   79  43  27 CALM      30.06

$$



USA.gov is the U.S. government's official web portal to all federal, state and local government web resources and services.